Simultaneous Nadir Overpasses (SNOs) Predictions

Prediction of SNOs between GOES-15 and METOP-B Satellite Orbit:

Table of predicted SNOs for the next 14.0 days since TLE Epoch: 2/14/2025
Index Date Time (GOES-15) GOES-15 Lat,Lon METOP-B Lat,Lon Distance(km) Time Diff (sec)
1 02/15/2025 17:15:31 -0.00, 61.46 -0.43, 59.61 211.83 80
2 02/16/2025 16:52:16 -0.01, 61.45 0.69, 64.57 355.28 80
3 02/18/2025 05:11:13 0.00, 61.45 0.34, 59.97 169.39 80
4 02/19/2025 04:53:18 0.01, 61.44 -0.79, 64.94 398.16 80
5 02/20/2025 17:12:23 0.00, 61.42 -0.26, 60.30 127.64 80
6 02/21/2025 16:49:08 -0.00, 61.42 0.87, 65.27 438.72 80
7 02/23/2025 05:08:05 -0.00, 61.44 0.15, 60.66 88.06 80
8 02/24/2025 04:50:09 0.00, 61.44 -0.94, 65.64 478.79 80
9 02/25/2025 17:09:14 0.01, 61.42 -0.09, 61.01 47.11 80
10 02/28/2025 05:04:55 -0.00, 61.46 0.01, 61.38 9.17 80
